Location: Newark
(54.6833°N, 25.2833°E)
Time: 00:20:03
(UTC+00:00)

Altair - Pass Details

Date: 13 November 2019
Orbit: 1502 x 1682 km, 47.2° (Epoch: 07 December)

Event Time Altitude Azimuth Distance (km) Brightness Sun altitude
Rises 04:31:25 0° 243° (WSW) 4,631 9.6 -10.5°
Reaches altitude 10° 04:34:31 10° 238° (WSW) 3,656 9.1 -10.1°
Maximum altitude 04:43:15 51° 166° (SSE) 1,852 8.2 -8.9°
Drops below altitude 10° 04:52:14 10° 95° (E) 3,750 11.0 -7.7°
Sets 04:55:26 0° 90° (E) 4,759 11.6 -7.2°
